Regional Weather Roundup
Issued by NWS

Home | Current Version | Previous Version | Graphics & Text | Print | Product List | Glossary On
Versions: 1 2 3 4 5 6 7 8 9 10 11 12 13 14 15 16 17 18 19 20 21 22 23 24 25 26 27 28 29 30 31 32 33 34 35 36 37 38 39 40 41 42 43 44 45 46 47 48 49 50
000
ASUS43 KMKX 141611
RWRWI

WISCONSIN REGIONAL WEATHER ROUNDUP
NATIONAL WEATHER SERVICE MILWAUKEE/SULLIVAN WI
1000 AM CST THU DEC 14 2017

NOTE: "FAIR" INDICATES FEW OR NO CLOUDS BELOW 12,000 FEET WITH NO
SIGNIFICANT WEATHER AND/OR OBSTRUCTIONS TO VISIBILITY.

WIZ001-002-006>008-014>016-023>028-141700-
NORTHWEST WISCONSIN

CITY           SKY/WX    TMP DP  RH WIND       PRES   REMARKS
SUPERIOR ARPT  LGT SNOW  17  15  92 W7        30.03R WCI   7
ASHLAND        LGT SNOW  16  12  84 SW9       30.01S FOG     WCI   4
HAYWARD        CLOUDY    17  12  80 SW5       29.99R WCI  10
SIREN          FLURRIES  18  14  86 W3        30.02S
CUMBERLAND     FLURRIES  18  16  93 W5        30.00R WCI  11
RICE LAKE      FLURRIES  18  17  95 CALM      30.02S
CHETEK         CLOUDY    18  16  93 SW3       30.02R
LADYSMITH      LGT SNOW  17  15  90 W5        30.01R WCI  10
EAU CLAIRE     CLOUDY    16  14  92 SW3       30.04R
MENOMONIE      CLOUDY    19  18  93 CALM      30.05R
NEW RICHMOND   FLURRIES  18  16  92 SW6       30.04R WCI   9
OSCEOLA        FLURRIES  18  15  86 SW5       30.07R WCI  11
$$

WIZ003>005-009-010-017-018-141700-
NORTH CENTRAL WISCONSIN

CITY           SKY/WX    TMP DP  RH WIND       PRES   REMARKS
MANITOWISH WTR LGT SNOW  11  11  98 NW6       29.94S WCI   2
ARBOR VITAE    LGT SNOW  15  12  89 W6        29.94R WCI   6
WOODRUFF       LGT SNOW  15  12  89 W6        29.94R WCI   6
RHINELANDER    CLOUDY    14  12  92 W8        29.95R WCI   3
EAGLE RIVER    SUNNY     13   7  78 W7        29.93R WCI   2
LAND O LAKES   SUNNY     15  10  80 W3        29.94R
PHILLIPS       FLURRIES  11  10  94 CALM      29.96S
TOMAHAWK       LGT SNOW  12   9  88 CALM      29.97S
MEDFORD        LGT SNOW  12  10  89 SW3       29.98R
MERRILL        FLURRIES  13   9  87 SW3       29.99R
$$

WIZ029-030-035-036-043>047-141700-
CENTRAL WISCONSIN

CITY           SKY/WX    TMP DP  RH WIND       PRES   REMARKS
WAUSAU         CLOUDY    12  10  92 CALM      29.99R
MOSINEE        PTSUNNY   10  10 100 W3        30.01S
MARSHFIELD     CLOUDY    12  10  92 CALM      30.00R
STEVENS POINT  FLURRIES  11  10  96 CALM      30.03S
WAUPACA        SUNNY     15  12  87 CALM      30.05S
WAUTOMA        SUNNY     19  14  81 CALM      30.06S
WISC RAPIDS    CLOUDY    11   6  81 CALM      30.05S
CAMP DOUGLAS   MOSUNNY   18  14  86 S5        30.06R WCI  11
$$

WIZ011>013-019>022-031-037>040-048>050-141700-
NORTHEAST WISCONSIN

CITY           SKY/WX    TMP DP  RH WIND       PRES   REMARKS
ANTIGO         CLOUDY    12   9  86 NW3       29.97R
SHAWANO        SUNNY     16  11  79 SW5       30.03S WCI   9
OCONTO         SUNNY      8   6  89 W3        30.04S
STURGEON BAY   MOSUNNY   18  10  71 W9        30.03R WCI   7
GREEN BAY      CLOUDY     9   6  88 CALM      30.05R
MANITOWOC      MOSUNNY   17  10  74 W6        30.06R WCI   9
APPLETON       MOSUNNY   10   5  79 W7        30.02R WCI   0
CLINTONVILLE   SUNNY     12   9  85 CALM      30.04S
OSHKOSH        MOSUNNY   12   7  80 W5        30.05R WCI   4
$$

WIZ032>034-041-042-053>061-141700-
SOUTHWEST WISCONSIN

CITY           SKY/WX    TMP DP  RH WIND       PRES   REMARKS
LA CROSSE      CLOUDY    17  13  84 S9        30.09R WCI   6
SPARTA         SUNNY     15  12  86 CALM      30.08R
VIROQUA        PTSUNNY   15  15  98 CALM      30.05R
BOSCOBEL       SUNNY     18  14  84 CALM      30.11R
PRAIRIE DU CHI CLOUDY    17  13  82 CALM      30.11R
PLATTEVILLE    MOSUNNY   20  17  86 CALM      30.09R
$$

WIZ056-057-062-063-064-067-068-141700-
SOUTH CENTRAL WISCONSIN

CITY           SKY/WX    TMP DP  RH WIND       PRES   REMARKS
REEDSBURG      SUNNY     16  13  86 CALM      30.06S
BARABOO/DELLS  SUNNY     17  13  85 NW3       30.06R
LONE ROCK      SUNNY     17  14  88 W6        30.10R WCI   9
MINERAL POINT  SUNNY     21  19  93 W3        30.07R
MADISON        MOSUNNY   19  13  77 N5        30.06R WCI  12
MIDDLETON      SUNNY     21  15  78 CALM      30.07R
WATERTOWN      SUNNY     16  13  89 CALM      30.07R
MONROE         MOSUNNY   19  14  79 CALM      30.06R
JANESVILLE     PTSUNNY   19  14  79 CALM      30.08R
$$

WIZ051-052-058>065-066-070>072-141700-
SOUTHEAST WISCONSIN

CITY           SKY/WX    TMP DP  RH WIND       PRES   REMARKS
MILWAUKEE      MOSUNNY   19  10  68 NW3       30.07R
WAUKESHA       SUNNY     14   9  79 NW6       30.07R WCI   5
MILWAUKEE/TIMM SUNNY     16   7  67 NW3       30.07R
RACINE         SUNNY     20  10  65 N7        30.09R WCI  11
BURLINGTON     SUNNY     19  13  78 NE5       30.07R WCI  12
KENOSHA        SUNNY     19  10  68 NW5       30.08R WCI  12
FOND DU LAC    FLURRIES  16   8  71 CALM      30.06R
SHEBOYGAN      MOSUNNY   13  10  88 W6        30.06R WCI   4
WEST BEND      MOSUNNY   16  12  86 NW5       30.05S FOG     WCI   9
JUNEAU         MOSUNNY   12   9  88 CALM      30.07R
$$

LSZ147-162-141700-
LAKE SUPERIOR

STATION/POSITION TIME  TEMP    WIND        PRES    WAVE
                       AIR SEA DIR/SP/G            HT/PER
                 (UTC) (F)     (DEG/KT/KT) (MB)    (FT/S)
DEVILS ISLAND    1600   20     320/  7/ 12 1017.0R
SAXON HARBOR     1530   16                 1015.9S
$$

LMZ867-665-643>646-141700-
LAKE MICHIGAN

STATION/POSITION TIME  TEMP    WIND        PRES    WAVE
                       AIR SEA DIR/SP/G            HT/PER
                 (UTC) (F)     (DEG/KT/KT) (MB)    (FT/S)
NORTHPORT PIER   1554   20     320/ 11/ 16 1016.3R
KEWAUNEE LAKESHO 1542   14     270/  3/  4 1016.7R
SHEBOYGAN LAKESH 1600   15     280/  8/  9 1019.2R
PORT WASHINGTON  1540   17     290/  5/  8 1019.6R
MILWAUKEE LAKESH 1550   19     320/  5/  7   N/A
KENOSHA   LAKESH 1600   19     330/  7/  9 1018.6
$$

TC  - TEMPERATURE IN CELSIUS
VSB - VISIBILITY IN STATUTE MILES
WCI - WIND CHILL INDEX
HX  - HEAT INDEX





USA.gov is the U.S. government's official web portal to all federal, state and local government web resources and services.